OPS 9346 (IDSCS 24)

导读

OPS 9346 (IDSCS 24)是美国于1968年6月13日发射的一颗国防通信卫星,隶属于初始国防卫星通信系统(IDSCS)系列。该系列卫星是美国第一代实用军用通信卫星,主要为美军提供全球战略通信服务,运行于地球同步轨道。作为该系列的第24颗卫星,它延续了此前型号设计,在冷战时期支撑了美国军方的远距离指挥与通信,目前已退役成为空间碎片。

Basic Information
目录编号:
3289
目录名称:
OPS 9346 (IDSCS 24)
国际标识:
1968-050F
轨道中心:
EARTH
卫星名称:
OPS 9346 (IDSCS 24)
卫星全名:
--
卫星状态:
在轨 (已飞行21215 天)
发射日期:
1968-06-13 UTC
国别 :
美国 (US)
星等 :
--
Orbit Information
数据来源 国际轨道数据
星历时间: 2026-07-14T02:47:31+0800
12小时前
查看轨道信息
半长轴: 40305.819km
偏心率: 0.0045851
轨道倾角: 7.135°
近地点辐角 141.110°
升交点赤经 53.058°
平近点角 59.876°
近地点: 33742.875km
远地点: 34112.489km
周期: 1342.182分钟
每日圈数: 1.07288
Detailed Information
使用方式:
暂无
2D Orbit Map
3D Orbit Map
Orbit Altitude Analysis Chart
Orbit Inclination Analysis Chart
Orbit Comprehensive Analysis Chart
View Comprehensive Chart